FGEUR EPKT-EPPO

Flight info

Callsign FGEUR
Flight time N/A
Altitude 10000
Route LOLSI T174 INDIG L980 MASIV
Aircraft C172/L-SBDFGRYZ/LB1

Departure

Time N/A
Airport Katowice Wojciech Korfanty International Airport (EPKT)

Arrival

Time 2026-04-23 16:20
Airport Poznań-Ławica Airport (EPPO)
Time Latitude Longitude Altitude Speed Heading
2026-04-23 14:28 52.18041 20.96143 357 ft 0 kts 317°
2026-04-23 14:33 52.18041 20.96142 357 ft 0 kts 320°
2026-04-23 14:40 52.18042 20.96141 357 ft 1 kts 316°
2026-04-23 14:40 52.18051 20.96116 360 ft 6 kts 291°
2026-04-23 14:41 52.18055 20.96094 357 ft 3 kts 283°
2026-04-23 14:41 52.18055 20.96090 357 ft 0 kts 305°
2026-04-23 14:41 52.18055 20.96089 357 ft 2 kts 314°
2026-04-23 14:41 52.18049 20.96093 358 ft 2 kts 306°
2026-04-23 14:42 52.18041 20.96034 360 ft 6 kts 227°
2026-04-23 14:42 52.17993 20.96007 356 ft 8 kts 219°
2026-04-23 14:42 52.17982 20.95955 356 ft 0 kts 279°
2026-04-23 14:43 52.17975 20.95938 359 ft 7 kts 206°
2026-04-23 14:43 52.17906 20.95949 356 ft 12 kts 151°
2026-04-23 14:44 52.17832 20.96015 356 ft 12 kts 151°
2026-04-23 14:44 52.17756 20.96079 356 ft 12 kts 154°
2026-04-23 14:44 52.17682 20.96141 356 ft 12 kts 151°
2026-04-23 14:44 52.17585 20.96225 356 ft 21 kts 152°
2026-04-23 14:45 52.17446 20.96349 356 ft 25 kts 151°
2026-04-23 14:45 52.17285 20.96489 356 ft 28 kts 150°
2026-04-23 14:45 52.17110 20.96641 356 ft 28 kts 151°
2026-04-23 14:45 52.16944 20.96788 356 ft 26 kts 149°
2026-04-23 14:46 52.16785 20.96926 360 ft 25 kts 150°
2026-04-23 14:46 52.16658 20.97075 355 ft 19 kts 113°
2026-04-23 14:46 52.16603 20.97274 354 ft 19 kts 119°
2026-04-23 14:46 52.16542 20.97471 357 ft 20 kts 115°
2026-04-23 14:47 52.16485 20.97679 356 ft 18 kts 114°
2026-04-23 14:47 52.16441 20.97821 351 ft 10 kts 158°
2026-04-23 14:47 52.16375 20.97778 353 ft 11 kts 214°
2026-04-23 14:47 52.16307 20.97705 357 ft 12 kts 238°
2026-04-23 14:48 52.16306 20.97659 350 ft 0 kts 294°
2026-04-23 14:48 52.16317 20.97626 353 ft 18 kts 300°
2026-04-23 14:48 52.16438 20.97184 357 ft 63 kts 291°
2026-04-23 14:49 52.16608 20.96527 523 ft 66 kts 294°
2026-04-23 14:49 52.16791 20.95862 702 ft 66 kts 290°
2026-04-23 14:49 52.16992 20.95068 786 ft 86 kts 294°
2026-04-23 14:49 52.17262 20.94161 959 ft 92 kts 294°
2026-04-23 14:50 52.17533 20.93224 1182 ft 91 kts 294°
2026-04-23 14:50 52.17799 20.92292 1409 ft 90 kts 294°
2026-04-23 14:50 52.18058 20.91366 1630 ft 90 kts 291°
2026-04-23 14:50 52.18105 20.90376 1853 ft 87 kts 264°
2026-04-23 14:51 52.18080 20.89391 2075 ft 88 kts 267°
2026-04-23 14:51 52.18054 20.88388 2304 ft 90 kts 267°
2026-04-23 14:51 52.18029 20.87361 2532 ft 92 kts 266°
2026-04-23 14:51 52.18000 20.86305 2760 ft 93 kts 265°
2026-04-23 14:52 52.17973 20.85269 2968 ft 90 kts 267°
2026-04-23 14:52 52.17945 20.84249 3146 ft 90 kts 267°
2026-04-23 14:52 52.17947 20.83291 3394 ft 79 kts 294°
2026-04-23 14:52 52.18076 20.82437 3571 ft 78 kts 295°
2026-04-23 14:53 52.18198 20.81582 3756 ft 80 kts 296°
2026-04-23 14:53 52.18320 20.80705 3930 ft 78 kts 295°
2026-04-23 14:53 52.18443 20.79836 4118 ft 79 kts 295°
2026-04-23 14:53 52.18571 20.78941 4294 ft 82 kts 295°
2026-04-23 14:54 52.18696 20.78044 4474 ft 82 kts 296°
2026-04-23 14:54 52.18822 20.77147 4667 ft 82 kts 296°
2026-04-23 14:54 52.18949 20.76238 4842 ft 81 kts 295°
2026-04-23 14:54 52.19074 20.75346 5009 ft 80 kts 295°
2026-04-23 14:55 52.19195 20.74477 5188 ft 78 kts 296°
2026-04-23 14:55 52.19318 20.73619 5370 ft 79 kts 295°
2026-04-23 14:55 52.19441 20.72741 5544 ft 81 kts 296°
2026-04-23 14:55 52.19566 20.71844 5729 ft 81 kts 296°
2026-04-23 14:56 52.19687 20.70965 5906 ft 79 kts 296°
2026-04-23 14:56 52.19698 20.70033 6072 ft 92 kts 268°
2026-04-23 14:56 52.19472 20.69065 6225 ft 93 kts 266°
2026-04-23 14:56 52.19253 20.68056 6387 ft 95 kts 264°
2026-04-23 14:57 52.19029 20.67057 6525 ft 94 kts 265°
2026-04-23 14:57 52.18807 20.66049 6675 ft 95 kts 265°
2026-04-23 14:57 52.18583 20.65032 6827 ft 96 kts 265°
2026-04-23 14:57 52.18355 20.63997 6974 ft 97 kts 265°
2026-04-23 14:58 52.18129 20.62984 7124 ft 94 kts 265°
2026-04-23 14:58 52.17909 20.61990 7269 ft 93 kts 267°
2026-04-23 14:58 52.17690 20.61003 7420 ft 92 kts 266°
2026-04-23 14:58 52.17474 20.60031 7554 ft 89 kts 267°
2026-04-23 14:59 52.17264 20.59088 7704 ft 87 kts 268°
2026-04-23 14:59 52.17060 20.58176 7855 ft 83 kts 269°
2026-04-23 14:59 52.16866 20.57311 7984 ft 78 kts 270°
2026-04-23 14:59 52.16686 20.56513 8118 ft 71 kts 272°
2026-04-23 15:00 52.16526 20.55822 8227 ft 59 kts 275°
2026-04-23 15:00 52.16390 20.55184 8220 ft 64 kts 275°
2026-04-23 15:00 52.16240 20.54501 8267 ft 64 kts 274°
2026-04-23 15:00 52.16085 20.53799 8342 ft 66 kts 273°
2026-04-23 15:01 52.15931 20.53104 8435 ft 67 kts 274°
2026-04-23 15:01 52.15771 20.52384 8524 ft 68 kts 272°
2026-04-23 15:01 52.15609 20.51646 8605 ft 70 kts 272°
2026-04-23 15:01 52.15441 20.50876 8698 ft 74 kts 271°
2026-04-23 15:02 52.15324 20.50341 8755 ft 77 kts 272°
2026-04-23 15:02 52.15304 20.49275 8874 ft 72 kts 293°
2026-04-23 15:02 52.15339 20.48445 8968 ft 77 kts 293°
2026-04-23 15:02 52.15387 20.47489 8977 ft 92 kts 290°
2026-04-23 15:03 52.15435 20.46384 8981 ft 103 kts 289°
2026-04-23 15:03 52.15486 20.45182 8976 ft 109 kts 288°
2026-04-23 15:03 52.15535 20.43927 8985 ft 112 kts 287°
2026-04-23 15:03 52.15587 20.42647 8987 ft 113 kts 287°
2026-04-23 15:04 52.15633 20.41416 9117 ft 105 kts 288°
2026-04-23 15:04 52.15678 20.40263 9244 ft 99 kts 289°
2026-04-23 15:04 52.15722 20.39163 9367 ft 95 kts 290°
2026-04-23 15:04 52.15765 20.38106 9492 ft 92 kts 291°
2026-04-23 15:05 52.15807 20.37078 9618 ft 89 kts 291°
2026-04-23 15:05 52.15848 20.36082 9748 ft 87 kts 291°
2026-04-23 15:05 52.15887 20.35117 9871 ft 86 kts 292°
2026-04-23 15:05 52.15927 20.34143 9972 ft 87 kts 292°
2026-04-23 15:06 52.15976 20.33103 9974 ft 97 kts 290°
2026-04-23 15:06 52.16023 20.31973 9987 ft 103 kts 290°
2026-04-23 15:06 52.16072 20.30784 9988 ft 108 kts 289°
2026-04-23 15:06 52.16121 20.29544 9987 ft 111 kts 288°
2026-04-23 15:07 52.16170 20.28295 9987 ft 113 kts 288°
2026-04-23 15:07 52.16220 20.27021 9984 ft 113 kts 288°
2026-04-23 15:07 52.16271 20.25744 9987 ft 113 kts 288°
2026-04-23 15:07 52.16321 20.24468 9986 ft 113 kts 288°
2026-04-23 15:08 52.16370 20.23195 9986 ft 112 kts 288°
2026-04-23 15:08 52.16421 20.21926 9987 ft 112 kts 288°
2026-04-23 15:08 52.16472 20.20654 9988 ft 113 kts 288°
2026-04-23 15:09 52.16572 20.18098 9987 ft 113 kts 288°
2026-04-23 15:09 52.16622 20.16814 9987 ft 114 kts 288°
2026-04-23 15:09 52.16673 20.15528 9987 ft 114 kts 288°
2026-04-23 15:09 52.16723 20.14239 9991 ft 114 kts 288°
2026-04-23 15:10 52.16755 20.13385 9991 ft 114 kts 288°
2026-04-23 15:10 52.16822 20.11660 9991 ft 114 kts 288°
2026-04-23 15:10 52.16872 20.10371 9989 ft 114 kts 288°
2026-04-23 15:10 52.16922 20.09085 9987 ft 114 kts 288°
2026-04-23 15:11 52.16971 20.07800 9990 ft 114 kts 288°
2026-04-23 15:11 52.17021 20.06515 9989 ft 114 kts 288°
2026-04-23 15:11 52.17069 20.05228 9989 ft 114 kts 288°
2026-04-23 15:11 52.17118 20.03945 9988 ft 114 kts 288°
2026-04-23 15:12 52.17167 20.02656 9992 ft 114 kts 288°
2026-04-23 15:12 52.17216 20.01361 9988 ft 115 kts 288°
2026-04-23 15:12 52.17265 20.00062 9991 ft 115 kts 287°
2026-04-23 15:12 52.17314 19.98760 9989 ft 115 kts 288°
2026-04-23 15:13 52.17363 19.97460 9990 ft 115 kts 287°
2026-04-23 15:13 52.17411 19.96162 9994 ft 115 kts 288°
2026-04-23 15:13 52.17459 19.94867 9991 ft 114 kts 288°
2026-04-23 15:13 52.17508 19.93572 9992 ft 115 kts 288°
2026-04-23 15:14 52.17555 19.92278 9990 ft 114 kts 288°
2026-04-23 15:14 52.17603 19.90984 9987 ft 114 kts 288°
2026-04-23 15:14 52.17650 19.89695 9989 ft 114 kts 288°
2026-04-23 15:14 52.17682 19.88844 9990 ft 114 kts 288°
2026-04-23 15:15 52.17730 19.87549 9991 ft 115 kts 288°
2026-04-23 15:15 52.17664 19.86223 9990 ft 120 kts 275°
2026-04-23 15:15 52.17542 19.84883 9990 ft 119 kts 276°
2026-04-23 15:15 52.17425 19.83541 9992 ft 120 kts 276°
2026-04-23 15:16 52.17306 19.82187 9992 ft 121 kts 276°
2026-04-23 15:16 52.17185 19.80830 9990 ft 121 kts 276°
2026-04-23 15:16 52.17065 19.79467 9991 ft 122 kts 276°
2026-04-23 15:16 52.16943 19.78103 9995 ft 122 kts 275°
2026-04-23 15:17 52.16821 19.76737 9994 ft 122 kts 276°
2026-04-23 15:17 52.16699 19.75375 9993 ft 121 kts 276°
2026-04-23 15:17 52.16578 19.74022 9990 ft 120 kts 276°
2026-04-23 15:17 52.16457 19.72673 9991 ft 120 kts 276°
2026-04-23 15:18 52.16337 19.71327 9994 ft 120 kts 276°
2026-04-23 15:18 52.16216 19.69982 9997 ft 120 kts 276°
2026-04-23 15:18 52.16096 19.68630 9998 ft 121 kts 276°
2026-04-23 15:18 52.15973 19.67271 9996 ft 121 kts 276°
2026-04-23 15:19 52.15851 19.65914 9997 ft 121 kts 275°
2026-04-23 15:19 52.15728 19.64557 9994 ft 121 kts 276°
2026-04-23 15:19 52.15606 19.63202 10000 ft 121 kts 276°
2026-04-23 15:19 52.15484 19.61845 9998 ft 121 kts 276°
2026-04-23 15:20 52.15360 19.60490 9996 ft 121 kts 275°
2026-04-23 15:20 52.15240 19.59157 9996 ft 120 kts 276°
2026-04-23 15:20 52.15117 19.57807 9995 ft 121 kts 275°
2026-04-23 15:20 52.14995 19.56456 9995 ft 120 kts 275°
2026-04-23 15:21 52.14872 19.55112 9996 ft 120 kts 275°
2026-04-23 15:21 52.14750 19.53774 9996 ft 119 kts 276°
2026-04-23 15:21 52.14629 19.52443 9999 ft 119 kts 275°
2026-04-23 15:21 52.14507 19.51109 10000 ft 119 kts 275°
2026-04-23 15:22 52.14385 19.49771 9999 ft 119 kts 276°
2026-04-23 15:22 52.14262 19.48439 9999 ft 119 kts 276°
2026-04-23 15:22 52.14141 19.47107 10000 ft 119 kts 275°
2026-04-23 15:22 52.14018 19.45770 9999 ft 120 kts 275°
2026-04-23 15:23 52.13895 19.44430 10000 ft 120 kts 275°
2026-04-23 15:23 52.13771 19.43087 9999 ft 120 kts 275°
2026-04-23 15:23 52.13647 19.41744 10001 ft 120 kts 275°
2026-04-23 15:23 52.13523 19.40404 9998 ft 120 kts 275°
2026-04-23 15:24 52.13400 19.39065 10002 ft 120 kts 275°
2026-04-23 15:24 52.13276 19.37728 10000 ft 119 kts 275°
2026-04-23 15:24 52.13152 19.36392 9999 ft 120 kts 275°
2026-04-23 15:24 52.13027 19.35050 10002 ft 119 kts 275°
2026-04-23 15:25 52.12903 19.33716 10000 ft 119 kts 275°
2026-04-23 15:25 52.12779 19.32378 10001 ft 120 kts 275°
2026-04-23 15:25 52.12654 19.31042 10003 ft 120 kts 275°
2026-04-23 15:25 52.12529 19.29700 10002 ft 120 kts 275°
2026-04-23 15:26 52.12404 19.28355 10000 ft 120 kts 275°
2026-04-23 15:26 52.12277 19.27005 10000 ft 121 kts 275°
2026-04-23 15:26 52.12150 19.25655 10000 ft 121 kts 275°
2026-04-23 15:26 52.12024 19.24304 10002 ft 121 kts 275°
2026-04-23 15:27 52.11897 19.22949 9999 ft 121 kts 275°
2026-04-23 15:27 52.11769 19.21594 9999 ft 121 kts 275°
2026-04-23 15:27 52.11641 19.20238 9999 ft 121 kts 275°
2026-04-23 15:27 52.11513 19.18884 10002 ft 121 kts 275°
2026-04-23 15:28 52.11386 19.17532 10005 ft 121 kts 275°
2026-04-23 15:28 52.11258 19.16182 10003 ft 121 kts 275°
2026-04-23 15:28 52.11130 19.14831 10006 ft 121 kts 275°
2026-04-23 15:28 52.11002 19.13485 10008 ft 120 kts 275°
2026-04-23 15:29 52.10876 19.12154 10008 ft 121 kts 275°
2026-04-23 15:29 52.10748 19.10802 10006 ft 121 kts 275°
2026-04-23 15:29 52.10618 19.09441 10007 ft 122 kts 274°
2026-04-23 15:29 52.10488 19.08078 10008 ft 122 kts 275°
2026-04-23 15:30 52.10358 19.06715 10009 ft 122 kts 275°
2026-04-23 15:30 52.10228 19.05353 10007 ft 122 kts 275°
2026-04-23 15:30 52.10098 19.03999 10005 ft 121 kts 275°
2026-04-23 15:30 52.09969 19.02649 10010 ft 120 kts 275°
2026-04-23 15:31 52.09840 19.01305 10007 ft 120 kts 275°
2026-04-23 15:31 52.09711 18.99961 10006 ft 120 kts 275°
2026-04-23 15:31 52.09582 18.98615 10007 ft 121 kts 274°
2026-04-23 15:31 52.09452 18.97264 10007 ft 121 kts 274°
2026-04-23 15:32 52.09323 18.95928 10006 ft 121 kts 274°
2026-04-23 15:32 52.09193 18.94580 10005 ft 121 kts 274°
2026-04-23 15:32 52.09063 18.93234 10005 ft 120 kts 274°
2026-04-23 15:32 52.08933 18.91892 10007 ft 120 kts 274°
2026-04-23 15:33 52.08803 18.90553 10005 ft 120 kts 274°
2026-04-23 15:33 52.08673 18.89211 10006 ft 120 kts 274°
2026-04-23 15:33 52.08543 18.87870 10007 ft 120 kts 274°
2026-04-23 15:33 52.08412 18.86526 10004 ft 120 kts 275°
2026-04-23 15:34 52.08282 18.85183 10009 ft 120 kts 274°
2026-04-23 15:34 52.08151 18.83839 10015 ft 120 kts 274°
2026-04-23 15:34 52.08020 18.82495 10013 ft 120 kts 274°
2026-04-23 15:34 52.07888 18.81149 10013 ft 121 kts 274°
2026-04-23 15:35 52.07757 18.79803 10007 ft 121 kts 274°
2026-04-23 15:35 52.07625 18.78456 10008 ft 121 kts 274°
2026-04-23 15:35 52.07493 18.77108 10012 ft 121 kts 274°
2026-04-23 15:35 52.07360 18.75760 10009 ft 121 kts 274°
2026-04-23 15:36 52.07228 18.74413 10008 ft 121 kts 274°
2026-04-23 15:36 52.07095 18.73066 10008 ft 121 kts 274°
2026-04-23 15:36 52.06962 18.71716 10012 ft 121 kts 274°
2026-04-23 15:36 52.06829 18.70363 10014 ft 122 kts 274°
2026-04-23 15:37 52.06695 18.69006 10014 ft 122 kts 274°
2026-04-23 15:37 52.06561 18.67646 10011 ft 122 kts 274°
2026-04-23 15:37 52.06426 18.66288 10011 ft 122 kts 274°
2026-04-23 15:37 52.06291 18.64932 10015 ft 121 kts 274°
2026-04-23 15:38 52.06158 18.63589 10013 ft 120 kts 274°
2026-04-23 15:38 52.06025 18.62251 10013 ft 120 kts 274°
2026-04-23 15:38 52.05892 18.60909 10014 ft 120 kts 274°
2026-04-23 15:38 52.05759 18.59571 10022 ft 120 kts 274°
2026-04-23 15:39 52.05624 18.58224 10016 ft 121 kts 274°
2026-04-23 15:39 52.05491 18.56890 10014 ft 121 kts 274°
2026-04-23 15:39 52.05354 18.55520 10019 ft 122 kts 273°
2026-04-23 15:39 52.05220 18.54181 10015 ft 121 kts 274°
2026-04-23 15:40 52.05084 18.52831 10017 ft 121 kts 274°
2026-04-23 15:40 52.04949 18.51484 10018 ft 120 kts 273°
2026-04-23 15:40 52.04815 18.50145 10018 ft 120 kts 273°
2026-04-23 15:40 52.04680 18.48810 10016 ft 119 kts 274°
2026-04-23 15:41 52.04546 18.47478 10019 ft 120 kts 273°
2026-04-23 15:41 52.04412 18.46147 10017 ft 120 kts 273°
2026-04-23 15:41 52.04278 18.44810 10022 ft 120 kts 274°
2026-04-23 15:41 52.04143 18.43475 10017 ft 120 kts 274°
2026-04-23 15:42 52.04008 18.42146 10018 ft 119 kts 274°
2026-04-23 15:42 52.03874 18.40820 10022 ft 119 kts 274°
2026-04-23 15:42 52.03740 18.39494 10021 ft 119 kts 274°
2026-04-23 15:42 52.03604 18.38157 10016 ft 121 kts 273°
2026-04-23 15:43 52.03468 18.36811 10022 ft 121 kts 273°
2026-04-23 15:43 52.03329 18.35465 10019 ft 121 kts 273°
2026-04-23 15:43 52.03193 18.34120 10019 ft 121 kts 273°
2026-04-23 15:43 52.03056 18.32774 10025 ft 121 kts 273°
2026-04-23 15:44 52.02918 18.31428 10020 ft 120 kts 273°
2026-04-23 15:44 52.02782 18.30094 10018 ft 120 kts 273°
2026-04-23 15:44 52.02645 18.28759 10021 ft 120 kts 273°
2026-04-23 15:44 52.02508 18.27419 10023 ft 120 kts 273°
2026-04-23 15:45 52.02371 18.26078 10020 ft 121 kts 273°
2026-04-23 15:45 52.02233 18.24734 10021 ft 120 kts 273°
2026-04-23 15:45 52.02095 18.23396 10025 ft 120 kts 273°
2026-04-23 15:45 52.01957 18.22058 10025 ft 120 kts 273°
2026-04-23 15:46 52.01819 18.20720 10026 ft 120 kts 273°
2026-04-23 15:46 52.01681 18.19383 10027 ft 120 kts 273°
2026-04-23 15:46 52.01543 18.18048 10024 ft 120 kts 273°
2026-04-23 15:46 52.01407 18.16737 10024 ft 119 kts 273°
2026-04-23 15:47 52.01270 18.15411 10024 ft 120 kts 273°
2026-04-23 15:47 52.01132 18.14076 10025 ft 120 kts 273°
2026-04-23 15:47 52.00994 18.12740 10025 ft 120 kts 273°
2026-04-23 15:47 52.00855 18.11403 10024 ft 120 kts 273°
2026-04-23 15:48 52.00715 18.10060 10023 ft 121 kts 273°
2026-04-23 15:48 52.00574 18.08712 10025 ft 121 kts 273°
2026-04-23 15:48 52.00435 18.07376 10026 ft 120 kts 273°
2026-04-23 15:48 52.00296 18.06044 10025 ft 120 kts 272°
2026-04-23 15:49 52.00157 18.04714 10028 ft 119 kts 273°
2026-04-23 15:49 52.00018 18.03388 10026 ft 119 kts 273°
2026-04-23 15:49 51.99880 18.02068 10028 ft 119 kts 273°
2026-04-23 15:49 51.99741 18.00745 10029 ft 120 kts 273°
2026-04-23 15:50 51.99709 17.99453 10030 ft 109 kts 292°
2026-04-23 15:50 51.99855 17.98244 10031 ft 110 kts 292°
2026-04-23 15:50 51.99992 17.97023 10033 ft 110 kts 292°
2026-04-23 15:50 52.00128 17.95799 10032 ft 110 kts 292°
2026-04-23 15:51 52.00264 17.94572 10033 ft 111 kts 292°
2026-04-23 15:51 52.00400 17.93340 10030 ft 111 kts 291°
2026-04-23 15:51 52.00536 17.92110 10033 ft 111 kts 292°
2026-04-23 15:51 52.00671 17.90883 10033 ft 110 kts 292°
2026-04-23 15:52 52.00806 17.89659 10033 ft 110 kts 291°
2026-04-23 15:52 52.00941 17.88434 10035 ft 110 kts 292°
2026-04-23 15:52 52.01075 17.87210 10034 ft 110 kts 292°
2026-04-23 15:52 52.01209 17.85984 10034 ft 111 kts 291°
2026-04-23 15:53 52.01426 17.84824 10031 ft 107 kts 300°
2026-04-23 15:53 52.01662 17.83675 10031 ft 107 kts 299°
2026-04-23 15:53 52.01900 17.82523 10035 ft 108 kts 300°
2026-04-23 15:53 52.02140 17.81362 10038 ft 109 kts 299°
2026-04-23 15:54 52.02381 17.80199 10036 ft 108 kts 300°
2026-04-23 15:54 52.02620 17.79043 10033 ft 108 kts 299°
2026-04-23 15:54 52.02859 17.77890 10034 ft 107 kts 299°
2026-04-23 15:54 52.03095 17.76756 10033 ft 107 kts 300°
2026-04-23 15:55 52.03332 17.75608 10035 ft 107 kts 299°
2026-04-23 15:55 52.03570 17.74458 10036 ft 107 kts 299°
2026-04-23 15:55 52.03808 17.73308 10037 ft 108 kts 299°
2026-04-23 15:55 52.04050 17.72138 10035 ft 108 kts 299°
2026-04-23 15:56 52.04285 17.71000 10036 ft 108 kts 299°
2026-04-23 15:56 52.04523 17.69849 10038 ft 108 kts 299°
2026-04-23 15:56 52.04761 17.68696 10035 ft 108 kts 299°
2026-04-23 15:56 52.05000 17.67538 10037 ft 109 kts 299°
2026-04-23 15:57 52.05240 17.66371 10036 ft 109 kts 299°
2026-04-23 15:57 52.05480 17.65207 10037 ft 109 kts 299°
2026-04-23 15:57 52.05720 17.64044 10034 ft 108 kts 299°
2026-04-23 15:57 52.05958 17.62884 10035 ft 108 kts 299°
2026-04-23 15:58 52.06197 17.61723 10035 ft 108 kts 299°
2026-04-23 15:58 52.06436 17.60561 10038 ft 108 kts 299°
2026-04-23 15:58 52.06674 17.59401 10042 ft 108 kts 299°
2026-04-23 15:58 52.06913 17.58240 10038 ft 108 kts 299°
2026-04-23 15:59 52.07151 17.57079 10037 ft 108 kts 299°
2026-04-23 15:59 52.07389 17.55920 10038 ft 108 kts 299°
2026-04-23 15:59 52.07627 17.54753 10038 ft 109 kts 299°
2026-04-23 15:59 52.07866 17.53587 10041 ft 109 kts 298°
2026-04-23 16:00 52.08105 17.52422 10042 ft 109 kts 299°
2026-04-23 16:00 52.08343 17.51258 10042 ft 108 kts 299°
2026-04-23 16:00 52.08581 17.50094 10044 ft 108 kts 299°
2026-04-23 16:00 52.08818 17.48934 10044 ft 108 kts 299°
2026-04-23 16:01 52.09054 17.47774 10044 ft 108 kts 298°
2026-04-23 16:01 52.09292 17.46609 10042 ft 109 kts 298°
2026-04-23 16:01 52.09531 17.45441 10038 ft 109 kts 298°
2026-04-23 16:01 52.09767 17.44279 10045 ft 108 kts 298°
2026-04-23 16:02 52.10002 17.43122 10048 ft 108 kts 298°
2026-04-23 16:02 52.10237 17.41971 10046 ft 107 kts 298°
2026-04-23 16:02 52.10471 17.40820 10050 ft 107 kts 298°
2026-04-23 16:02 52.10709 17.39655 10002 ft 112 kts 298°
2026-04-23 16:03 52.10963 17.38416 9873 ft 118 kts 297°
2026-04-23 16:03 52.11224 17.37131 9749 ft 121 kts 297°
2026-04-23 16:03 52.11489 17.35825 9621 ft 122 kts 297°
2026-04-23 16:03 52.11664 17.34958 9518 ft 121 kts 297°
2026-04-23 16:04 52.11923 17.33675 9367 ft 118 kts 297°
2026-04-23 16:04 52.12179 17.32414 9205 ft 117 kts 297°
2026-04-23 16:04 52.12434 17.31155 9043 ft 117 kts 297°
2026-04-23 16:04 52.12770 17.29493 8842 ft 117 kts 297°
2026-04-23 16:05 52.12942 17.28642 8735 ft 117 kts 296°
2026-04-23 16:05 52.13197 17.27381 8582 ft 117 kts 296°
2026-04-23 16:05 52.13453 17.26113 8427 ft 118 kts 296°
2026-04-23 16:05 52.13709 17.24845 8276 ft 118 kts 296°
2026-04-23 16:06 52.13965 17.23576 8123 ft 118 kts 296°
2026-04-23 16:06 52.14221 17.22308 7974 ft 118 kts 296°
2026-04-23 16:06 52.14474 17.21052 7827 ft 118 kts 296°
2026-04-23 16:06 52.14730 17.19780 7677 ft 118 kts 295°
2026-04-23 16:07 52.14986 17.18505 7528 ft 118 kts 295°
2026-04-23 16:07 52.15242 17.17231 7380 ft 118 kts 295°
2026-04-23 16:07 52.15686 17.16193 7229 ft 111 kts 331°
2026-04-23 16:07 52.16441 17.16029 7079 ft 114 kts
2026-04-23 16:08 52.17199 17.16439 6934 ft 115 kts 13°
2026-04-23 16:08 52.17960 17.16842 6797 ft 115 kts 13°
2026-04-23 16:08 52.18727 17.17246 6645 ft 116 kts 13°
2026-04-23 16:08 52.19494 17.17650 6508 ft 116 kts 13°
2026-04-23 16:09 52.20267 17.18054 6348 ft 117 kts 13°
2026-04-23 16:09 52.21040 17.18458 6193 ft 117 kts 12°
2026-04-23 16:09 52.21817 17.18859 6038 ft 118 kts 12°
2026-04-23 16:09 52.22598 17.19268 5882 ft 118 kts 12°
2026-04-23 16:10 52.23381 17.19678 5727 ft 119 kts 13°
2026-04-23 16:10 52.24174 17.20095 5576 ft 120 kts 13°
2026-04-23 16:10 52.24966 17.20512 5419 ft 119 kts 13°
2026-04-23 16:10 52.25756 17.20928 5268 ft 119 kts 13°
2026-04-23 16:11 52.26548 17.21343 5114 ft 119 kts 12°
2026-04-23 16:11 52.27336 17.21758 4961 ft 119 kts 12°
2026-04-23 16:11 52.28127 17.22173 4809 ft 120 kts 12°
2026-04-23 16:11 52.28920 17.22591 4655 ft 119 kts 12°
2026-04-23 16:12 52.29709 17.23006 4499 ft 119 kts 13°
2026-04-23 16:12 52.30504 17.23425 4343 ft 120 kts 13°
2026-04-23 16:12 52.31302 17.23847 4182 ft 120 kts 12°
2026-04-23 16:12 52.32096 17.24264 4030 ft 120 kts 12°
2026-04-23 16:13 52.32890 17.24680 3879 ft 118 kts 10°
2026-04-23 16:13 52.34138 17.23552 3568 ft 117 kts 293°
2026-04-23 16:13 52.34371 17.22272 3425 ft 118 kts 292°
2026-04-23 16:14 52.34619 17.20985 3278 ft 119 kts 292°
2026-04-23 16:14 52.34876 17.19680 3124 ft 121 kts 294°
2026-04-23 16:14 52.35165 17.18400 2993 ft 119 kts 295°
2026-04-23 16:14 52.35422 17.17165 2997 ft 115 kts 294°
2026-04-23 16:15 52.35674 17.15931 2985 ft 110 kts 294°
2026-04-23 16:15 52.35901 17.14783 2977 ft 105 kts 294°
2026-04-23 16:15 52.36121 17.13640 2985 ft 107 kts 294°
2026-04-23 16:15 52.36347 17.12475 2983 ft 106 kts 293°
2026-04-23 16:16 52.36566 17.11330 2989 ft 104 kts 294°
2026-04-23 16:16 52.36787 17.10197 2991 ft 105 kts 293°
2026-04-23 16:16 52.37007 17.09047 2985 ft 105 kts 293°
2026-04-23 16:16 52.37228 17.07909 2988 ft 106 kts 295°
2026-04-23 16:17 52.37451 17.06759 3000 ft 108 kts 295°
2026-04-23 16:17 52.37679 17.05562 2993 ft 109 kts 294°
2026-04-23 16:17 52.37910 17.04388 2882 ft 108 kts 295°
2026-04-23 16:17 52.38139 17.03203 2739 ft 111 kts 294°
2026-04-23 16:18 52.38381 17.01960 2591 ft 119 kts 293°
2026-04-23 16:18 52.38631 17.00663 2424 ft 120 kts 294°
2026-04-23 16:18 52.38881 16.99360 2260 ft 118 kts 295°
2026-04-23 16:18 52.39126 16.98078 2102 ft 117 kts 291°
2026-04-23 16:19 52.39369 16.96808 1933 ft 115 kts 293°
2026-04-23 16:19 52.39610 16.95558 1784 ft 116 kts 292°
2026-04-23 16:19 52.39854 16.94289 1620 ft 116 kts 292°
2026-04-23 16:19 52.40083 16.93119 1470 ft 102 kts 293°
2026-04-23 16:20 52.40287 16.92049 1336 ft 93 kts 292°
2026-04-23 16:20 52.40465 16.91123 1212 ft 74 kts 294°
2026-04-23 16:20 52.40602 16.90412 1125 ft 57 kts 295°
2026-04-23 16:20 52.40709 16.89854 1051 ft 49 kts 291°
2026-04-23 16:21 52.40812 16.89325 988 ft 49 kts 291°
2026-04-23 16:21 52.40915 16.88788 918 ft 50 kts 290°
2026-04-23 16:21 52.41014 16.88267 852 ft 48 kts 293°
2026-04-23 16:21 52.41107 16.87754 768 ft 50 kts 290°
2026-04-23 16:22 52.41203 16.87203 741 ft 51 kts 287°
2026-04-23 16:22 52.41314 16.86622 702 ft 54 kts 289°
2026-04-23 16:22 52.41440 16.86014 643 ft 59 kts 290°
2026-04-23 16:22 52.41576 16.85365 568 ft 61 kts 288°
2026-04-23 16:23 52.41700 16.84768 488 ft 52 kts 292°
2026-04-23 16:23 52.41804 16.84216 389 ft 48 kts 282°
2026-04-23 16:23 52.41898 16.83710 311 ft 43 kts 287°
2026-04-23 16:23 52.41978 16.83312 296 ft 30 kts 289°
2026-04-23 16:24 52.42019 16.83037 296 ft 19 kts 260°
2026-04-23 16:24 52.41955 16.82965 297 ft 14 kts 191°
2026-04-23 16:24 52.41868 16.82976 298 ft 16 kts 117°
2026-04-23 16:24 52.41822 16.83198 297 ft 25 kts 103°
2026-04-23 16:25 52.41766 16.83490 297 ft 28 kts 112°
2026-04-23 16:25 52.41708 16.83802 295 ft 24 kts 108°
2026-04-23 16:25 52.41665 16.83957 292 ft 12 kts 156°
2026-04-23 16:25 52.41598 16.83895 292 ft 12 kts 203°
2026-04-23 16:26 52.41509 16.83893 292 ft 14 kts 194°
2026-04-23 16:26 52.41472 16.83866 294 ft 5 kts 307°
2026-04-23 16:26 52.41489 16.83858 296 ft 0 kts